Other Surface Observations
Issued by NWS

Home | Current Version | Previous Version | Text Only | Print | Product List | Glossary On
Versions: 1 2 3 4 5 6 7 8 9 10 11 12 13 14 15 16 17 18 19 20 21 22 23 24 25 26 27 28 29 30 31 32 33 34 35 36 37 38 39 40 41 42 43 44 45 46 47 48 49 50
794
SXUS52 KTAE 060305
OSOTAE
OSOTAE
North Florida/South Alabama/Southwest Georgia Weather Roundup
National Weather Service Tallahassee Florida
1000 PM EST MON DEC 05 2016

Note: "fair" indicates few or no clouds below 12,000 feet with no
significant weather and/or obstructions to visibility.

!FLZ017-115-028-034-025-060400
...North Florida...

CITY           SKY/WX    TMP DP  RH WIND       PRES   REMARKS
TALLAHASSEE    TSTM      74  73  97 S13       29.80S
APALACHICOLA   CLOUDY    72  71  97 SW13      29.80S
PERRY          RAIN      73  70  90 S15G21    29.86F
CROSS CITY     LGT RAIN  73  70  88 S17G24    29.87S
JACKSONVILLE   CLOUDY    73  70  90 SE7       29.85F
$$

!FLZ112-006-005-002-011-060400
...Florida Panhandle...

CITY           SKY/WX    TMP DP  RH WIND       PRES   REMARKS
MARIANNA       HVY RAIN  64  64 100 CALM      29.79R FOG
BONIFAY        RAIN      64  64 100 CALM      29.78F FOG
PANAMA CITY NW CLOUDY    75  73  93 S15G23    29.75F
TYNDALL AFB    CLOUDY    72  70  94 S13       29.77F
TYND DRONE APT NOT AVBL
DE FUNIAK SPR  NOT AVBL
EGLIN AFB      LGT RAIN  66  66 100 W3        29.76R
DESTIN         HVY RAIN  73 N/A N/A VRB3      29.74S
HURLBURT       LGT RAIN  65  64  99 N6        29.74R
CRESTVIEW      LGT RAIN  64  63  96 N3        29.76F
PENSACOLA      HVY RAIN  64  62  93 CALM      29.75S FOG
$$

!ALZ063-066-060400
...South Alabama...

CITY           SKY/WX    TMP DP  RH WIND       PRES   REMARKS
DOTHAN         LGT RAIN  61  61 100 E6        29.81R
OZARK CAIRNS   LGT RAIN  60  60 100 E3        29.77F
FT RUCKER HELI RAIN      60  59  96 CALM      29.78R
RUCKER HELI 3  NOT AVBL
RUCKER HELI 2  LGT RAIN  61 N/A N/A E5        29.77S
FLORALA APT    LGT RAIN  61  60  97 N5        29.78S
ANDALUSIA      CLOUDY    61  57  87 E8        29.76F
TROY           CLOUDY    56  56 100 E9        29.79R
EUFALA         LGT RAIN  57  55  93 N3        29.80R
MOBILE         CLOUDY    60  58  92 E10       29.74R
$$

!GAZ120>161-060400
...Southwest and South Central Georgia...

CITY           SKY/WX    TMP DP  RH WIND       PRES   REMARKS
THOMASVILLE    DRIZZLE   73  73 100 SW17G26   29.81F
BAINBRIDGE     HVY RAIN  63  63 100 NW8G28    29.80R
MOODY AFB      LGT RAIN  72  70  94 S16       29.82F
VALDOSTA       RAIN      71  71 100 S14G21    29.84F FOG
MOULTRIE       LGT RAIN  72  70  94 S13G18    29.81F
BLAKELY        RAIN      63  63 100 CALM      29.78F
ALBANY         HVY RAIN  60  60 100 NE7       29.84R VSB 1
TIFTON         CLOUDY    58  58 100 E8        29.83F
FITZGERALD     NOT AVBL
CORDELE        NOT AVBL
AMERICUS       NOT AVBL
HOMERVILLE     HVY RAIN  72  72 100 S6        29.86R
$$

!GMZ750-755-770-775-060400
...Coastal and Buoy Obs...

STATION/POSITION TIME  TEMP    WIND        PRES    VSBY  WAVE
                       AIR SEA DIR/SP/G                  HT/PER
                 (UTC) (F)     (DEG/KT/KT) (MB)    (MI)  (FT/S)
KEATON BEACH     0300   69     160/ 14/ 16 1010.6F
CEDAR KEY        0200   72     190/ 17/ 21 1012.0R
C TOWER          0300   71     230/ 16/ 17 1010.2F
APALACHICOLA BUO 0250   77 75  180/ 16/ 19 1009.9F         6/ 7
PANAMA CITY BUOY 0150   76 76              1009.3          6/ 6
MOBILE BUOY      0250   72 75   80/ 10/ 10 1006.8R         5/ 7
ORANGE BCH AL BU 0250   67 69   70/ 12/ 12 1006.6F         4/ 6
$$




USA.gov is the U.S. government's official web portal to all federal, state and local government web resources and services.